User: anonymous   Login
Location: Waning Moon II Observatory
(30.3730°N, 89.7620°W)
Time: 17:49:43
(UTC-05:00)
Language:

Cosmos 1825 Rocket - Orbit

View from above orbital plane
View from above orbital plane
View from above satellite
View from above satellite

Ground track
Ground track

The orbit data is extracted from the following two-line orbital elements,

1 17567U 87024B   18113.89222284 +.00000100 +00000-0 +91723-5 0  9996
2 17567 082.5275 268.2128 0020247 044.7083 315.5760 14.83696036661452
Epoch (UTC): 23 April 2018 21:24:48
Eccentricity: 0.0020247
inclination: 82.5275°
perigee height: 603 km
apogee height: 632 km
right ascension of ascending node: 268.2128°
argument of perigee: 44.7083°
revolutions per day: 14.83696036
mean anomaly at epoch: 315.5760°
orbit number at epoch: 66145

The dashed part of the orbit path shows where the satellite is in the earth's shadow,  

DLR